Hourly Data Report for November 14, 2018

VICTORIA UNIVERSITY CS
BRITISH COLUMBIA
Current Station Operator: ECCC - MSC

48°27'25.200" N
123°18'16.600" W
60.10 m
1018598
71783
WYJ

Download Data

Hourly Data (November 2018)
Hourly Data Report for November 14, 2018
TIME
LST
Temp Definition
°C
Dew Point Definition
°C
Rel Hum Definition
%
Precip. Amount Definition
mm

Wind Dir Definition
10's deg

Wind Spd Definition
km/h
Visibility Definition
km
Stn Press Definition
kPa
Hmdx Definition


Wind Chill Definition


Weather Definition


00:00 8.0 7.0 93 1.1 2 8   101.61     LegendNANA
01:00 8.4 7.2 93 0.0 2 9   101.54     LegendNANA
02:00 8.3 7.3 94 0.3 7 4   101.47     LegendNANA
03:00 8.5 7.8 95 0.7 4 3   101.46     LegendNANA
04:00 8.4 7.4 93 0.6 8 3   101.37     LegendNANA
05:00 8.4 7.6 95 0.5 1 2   101.29     LegendNANA
06:00 8.3 7.8 97 0.2 13 2   101.23     LegendNANA
07:00 8.5 8.1 98 2.3 14 3   101.21     LegendNANA
08:00 8.6 8.3 98 1.7 10 2   101.27     LegendNANA
09:00 9.9 9.6 98 0.0 21 6   101.39     LegendNANA
10:00 13.4 11.4 88 0.0 25 13   101.49     LegendNANA
11:00 14.1 10.5 79 0.0 26 14   101.57     LegendNANA
12:00 14.8 9.9 73 0.0 25 10   101.67     LegendNANA
13:00 15.5 8.7 64 0.0 25 11   101.70     LegendNANA
14:00 14.8 8.4 66 0.0 25 11   101.78     LegendNANA
15:00 14.0 8.5 70 0.0 23 11   101.79     LegendNANA
16:00 12.6 8.7 77 0.0 23 9   101.82     LegendNANA
17:00 11.1 8.0 82 0.0 21 2   101.88     LegendNANA
18:00 10.4 8.6 88 0.0 24 6   101.91     LegendNANA
19:00 9.6 8.5 93 0.0 13 2   101.95     LegendNANA
20:00 9.3 8.4 94 0.0 17 2   101.97     LegendNANA
21:00 9.0 8.5 96 0.0 19 6   102.01     LegendNANA
22:00 9.4 8.7 95 0.0 20 2   102.06     LegendNANA
23:00 8.9 8.5 97 0.0 15 3   102.04     LegendNANA

Notes on Data Quality.

Legend

  • E = Estimated
  • M = Missing
  • NA = Not Available*
  • [empty] = Indicates an unobserved value
Date modified: